Year,Month,Day,Hour,Minute,Value (Times are PST for windgust in km/hr)
2016,03,13,00,00,8.10
2016,03,13,00,01,8.10
2016,03,13,00,02,8.10
2016,03,13,00,03,8.10
2016,03,13,00,04,6.40
2016,03,13,00,05,9.60
2016,03,13,00,06,8.10
2016,03,13,00,07,6.40
2016,03,13,00,08,6.40
2016,03,13,00,09,6.40
2016,03,13,00,10,6.40
2016,03,13,00,11,4.80
2016,03,13,00,12,4.80
2016,03,13,00,13,1.60
2016,03,13,00,16,3.20
2016,03,13,00,30,1.60
2016,03,13,00,31,3.20
2016,03,13,00,32,4.80
2016,03,13,00,33,4.80
2016,03,13,00,34,4.80
2016,03,13,00,35,4.80
2016,03,13,00,36,3.20
2016,03,13,00,37,4.80
2016,03,13,00,38,6.40
2016,03,13,00,39,6.40
2016,03,13,00,40,6.40
2016,03,13,00,41,6.40
2016,03,13,00,42,8.10
2016,03,13,00,43,8.10
2016,03,13,00,44,8.10
2016,03,13,00,45,8.10
2016,03,13,00,46,6.40
2016,03,13,00,47,6.40
2016,03,13,00,48,8.10
2016,03,13,01,03,4.80
2016,03,13,01,04,1.60
2016,03,13,01,06,1.60
2016,03,13,01,07,3.20
2016,03,13,01,08,1.60
2016,03,13,01,09,3.20
2016,03,13,01,10,3.20
2016,03,13,01,11,4.80
2016,03,13,01,12,16.10
2016,03,13,01,13,6.40
2016,03,13,01,14,6.40
2016,03,13,01,15,9.60
2016,03,13,01,16,8.10
2016,03,13,01,17,11.30
2016,03,13,01,18,8.10
2016,03,13,01,19,4.80
2016,03,13,01,20,6.40
2016,03,13,01,21,9.60
2016,03,13,01,22,6.40
2016,03,13,01,23,9.60
2016,03,13,01,24,11.30
2016,03,13,01,25,9.60
2016,03,13,01,26,8.10
2016,03,13,01,27,4.80
2016,03,13,01,28,14.50
2016,03,13,01,29,4.80
2016,03,13,01,30,4.80
2016,03,13,01,31,4.80
2016,03,13,01,32,9.60
2016,03,13,01,33,4.80
2016,03,13,01,34,6.40
2016,03,13,01,35,3.20
2016,03,13,01,36,1.60
2016,03,13,01,37,9.60
2016,03,13,01,38,4.80
2016,03,13,01,39,6.40
2016,03,13,01,40,9.60
2016,03,13,01,41,8.10
2016,03,13,01,42,4.80
2016,03,13,01,43,3.20
2016,03,13,01,44,4.80
2016,03,13,01,45,6.40
2016,03,13,01,46,4.80
2016,03,13,01,47,8.10
2016,03,13,01,48,4.80
2016,03,13,01,49,6.40
2016,03,13,01,50,8.10
2016,03,13,01,51,3.20
2016,03,13,01,52,6.40
2016,03,13,01,54,6.40
2016,03,13,01,55,8.10
2016,03,13,01,56,1.60
2016,03,13,01,57,3.20
2016,03,13,01,59,1.60
2016,03,13,03,02,1.60
2016,03,13,03,03,3.20
2016,03,13,03,04,4.80
2016,03,13,03,05,4.80
2016,03,13,03,06,6.40
2016,03,13,03,07,6.40
2016,03,13,03,08,4.80
2016,03,13,03,09,3.20
2016,03,13,03,10,4.80
2016,03,13,03,12,4.80
2016,03,13,03,13,1.60
2016,03,13,03,14,3.20
2016,03,13,03,15,3.20
2016,03,13,03,16,1.60
2016,03,13,03,17,3.20
2016,03,13,03,20,4.80
2016,03,13,03,21,3.20
2016,03,13,03,22,3.20
2016,03,13,03,24,3.20
2016,03,13,03,25,1.60
2016,03,13,03,27,4.80
2016,03,13,03,29,4.80
2016,03,13,03,30,4.80
2016,03,13,03,31,4.80
2016,03,13,03,32,6.40
2016,03,13,03,33,9.60
2016,03,13,03,34,8.10
2016,03,13,03,35,9.60
2016,03,13,03,36,11.30
2016,03,13,03,37,9.60
2016,03,13,03,38,6.40
2016,03,13,03,39,6.40
2016,03,13,03,40,16.10
2016,03,13,03,41,8.10
2016,03,13,03,42,6.40
2016,03,13,03,43,4.80
2016,03,13,03,44,4.80
2016,03,13,03,45,9.60
2016,03,13,03,46,9.60
2016,03,13,03,47,6.40
2016,03,13,03,48,6.40
2016,03,13,03,49,6.40
2016,03,13,03,50,11.30
2016,03,13,03,51,9.60
2016,03,13,03,52,19.30
2016,03,13,03,53,9.60
2016,03,13,03,54,16.10
2016,03,13,03,55,11.30
2016,03,13,03,56,16.10
2016,03,13,03,57,12.90
2016,03,13,03,58,8.10
2016,03,13,03,59,9.60
2016,03,13,04,00,8.10
2016,03,13,04,01,19.30
2016,03,13,04,02,14.50
2016,03,13,04,03,6.40
2016,03,13,04,04,17.70
2016,03,13,04,05,14.50
2016,03,13,04,06,11.30
2016,03,13,04,07,17.70
2016,03,13,04,08,11.30
2016,03,13,04,09,20.90
2016,03,13,04,10,14.50
2016,03,13,04,11,19.30
2016,03,13,04,12,24.20
2016,03,13,04,13,17.70
2016,03,13,04,14,9.60
2016,03,13,04,15,22.50
2016,03,13,04,16,24.20
2016,03,13,04,17,12.90
2016,03,13,04,18,16.10
2016,03,13,04,19,9.60
2016,03,13,04,20,25.70
2016,03,13,04,21,20.90
2016,03,13,04,22,27.40
2016,03,13,04,23,19.30
2016,03,13,04,24,29.00
2016,03,13,04,25,29.00
2016,03,13,04,26,29.00
2016,03,13,04,27,24.20
2016,03,13,04,28,25.70
2016,03,13,04,29,24.20
2016,03,13,04,30,17.70
2016,03,13,04,31,25.70
2016,03,13,04,32,29.00
2016,03,13,04,33,27.40
2016,03,13,04,34,17.70
2016,03,13,04,35,19.30
2016,03,13,04,36,29.00
2016,03,13,04,37,30.60
2016,03,13,04,38,29.00
2016,03,13,04,39,32.20
2016,03,13,04,40,25.70
2016,03,13,04,41,29.00
2016,03,13,04,42,40.20
2016,03,13,04,43,24.20
2016,03,13,04,44,29.00
2016,03,13,04,45,16.10
2016,03,13,04,46,25.70
2016,03,13,04,47,25.70
2016,03,13,04,48,22.50
2016,03,13,04,49,35.40
2016,03,13,04,50,40.20
2016,03,13,04,51,29.00
2016,03,13,04,52,27.40
2016,03,13,04,53,32.20
2016,03,13,04,54,22.50
2016,03,13,04,55,20.90
2016,03,13,04,56,22.50
2016,03,13,04,57,30.60
2016,03,13,04,58,35.40
2016,03,13,04,59,30.60
2016,03,13,05,00,37.00
2016,03,13,05,01,29.00
2016,03,13,05,02,27.40
2016,03,13,05,03,30.60
2016,03,13,05,04,20.90
2016,03,13,05,05,22.50
2016,03,13,05,06,24.20
2016,03,13,05,07,30.60
2016,03,13,05,08,25.70
2016,03,13,05,09,20.90
2016,03,13,05,10,22.50
2016,03,13,05,11,25.70
2016,03,13,05,12,12.90
2016,03,13,05,13,25.70
2016,03,13,05,14,29.00
2016,03,13,05,15,22.50
2016,03,13,05,16,33.80
2016,03,13,05,17,24.20
2016,03,13,05,18,22.50
2016,03,13,05,19,38.60
2016,03,13,05,20,30.60
2016,03,13,05,21,25.70
2016,03,13,05,22,29.00
2016,03,13,05,23,38.60
2016,03,13,05,24,29.00
2016,03,13,05,25,30.60
2016,03,13,05,26,17.70
2016,03,13,05,27,25.70
2016,03,13,05,28,22.50
2016,03,13,05,29,24.20
2016,03,13,05,30,30.60
2016,03,13,05,31,25.70
2016,03,13,05,32,22.50
2016,03,13,05,33,25.70
2016,03,13,05,34,33.80
2016,03,13,05,35,27.40
2016,03,13,05,36,25.70
2016,03,13,05,37,16.10
2016,03,13,05,38,33.80
2016,03,13,05,39,30.60
2016,03,13,05,40,24.20
2016,03,13,05,41,41.80
2016,03,13,05,42,27.40
2016,03,13,05,43,40.20
2016,03,13,05,44,17.70
2016,03,13,05,45,30.60
2016,03,13,05,46,24.20
2016,03,13,05,47,24.20
2016,03,13,05,48,20.90
2016,03,13,05,49,20.90
2016,03,13,05,50,27.40
2016,03,13,05,51,43.50
2016,03,13,05,52,25.70
2016,03,13,05,53,17.70
2016,03,13,05,54,37.00
2016,03,13,05,55,20.90
2016,03,13,05,56,17.70
2016,03,13,05,57,24.20
2016,03,13,05,58,27.40
2016,03,13,05,59,27.40
2016,03,13,06,00,27.40
2016,03,13,06,01,27.40
2016,03,13,06,02,19.30
2016,03,13,06,03,32.20
2016,03,13,06,04,16.10
2016,03,13,06,05,22.50
2016,03,13,06,06,22.50
2016,03,13,06,07,25.70
2016,03,13,06,08,27.40
2016,03,13,06,09,25.70
2016,03,13,06,10,32.20
2016,03,13,06,11,43.50
2016,03,13,06,12,32.20
2016,03,13,06,13,27.40
2016,03,13,06,14,22.50
2016,03,13,06,15,29.00
2016,03,13,06,16,22.50
2016,03,13,06,17,25.70
2016,03,13,06,18,22.50
2016,03,13,06,19,24.20
2016,03,13,06,20,20.90
2016,03,13,06,21,24.20
2016,03,13,06,22,27.40
2016,03,13,06,23,11.30
2016,03,13,06,24,19.30
2016,03,13,06,25,32.20
2016,03,13,06,26,20.90
2016,03,13,06,27,19.30
2016,03,13,06,28,33.80
2016,03,13,06,29,24.20
2016,03,13,06,30,22.50
2016,03,13,06,31,29.00
2016,03,13,06,32,29.00
2016,03,13,06,33,19.30
2016,03,13,06,34,20.90
2016,03,13,06,35,11.30
2016,03,13,06,36,24.20
2016,03,13,06,37,32.20
2016,03,13,06,38,25.70
2016,03,13,06,39,19.30
2016,03,13,06,40,24.20
2016,03,13,06,41,19.30
2016,03,13,06,42,20.90
2016,03,13,06,43,22.50
2016,03,13,06,44,24.20
2016,03,13,06,45,24.20
2016,03,13,06,46,30.60
2016,03,13,06,47,33.80
2016,03,13,06,48,17.70
2016,03,13,06,49,17.70
2016,03,13,06,50,33.80
2016,03,13,06,51,29.00
2016,03,13,06,52,30.60
2016,03,13,06,53,17.70
2016,03,13,06,54,22.50
2016,03,13,06,55,20.90
2016,03,13,06,56,17.70
2016,03,13,06,57,25.70
2016,03,13,06,58,29.00
2016,03,13,06,59,33.80
2016,03,13,07,00,33.80
2016,03,13,07,01,17.70
2016,03,13,07,02,24.20
2016,03,13,07,03,19.30
2016,03,13,07,04,19.30
2016,03,13,07,05,16.10
2016,03,13,07,06,25.70
2016,03,13,07,07,22.50
2016,03,13,07,08,35.40
2016,03,13,07,09,37.00
2016,03,13,07,10,27.40
2016,03,13,07,11,33.80
2016,03,13,07,12,17.70
2016,03,13,07,13,35.40
2016,03,13,07,14,30.60
2016,03,13,07,15,25.70
2016,03,13,07,16,27.40
2016,03,13,07,17,29.00
2016,03,13,07,18,27.40
2016,03,13,07,19,20.90
2016,03,13,07,20,11.30
2016,03,13,07,21,25.70
2016,03,13,07,22,16.10
2016,03,13,07,23,19.30
2016,03,13,07,24,38.60
2016,03,13,07,25,25.70
2016,03,13,07,26,16.10
2016,03,13,07,27,25.70
2016,03,13,07,28,19.30
2016,03,13,07,29,35.40
2016,03,13,07,30,22.50
2016,03,13,07,31,14.50
2016,03,13,07,32,30.60
2016,03,13,07,33,17.70
2016,03,13,07,34,14.50
2016,03,13,07,35,22.50
2016,03,13,07,36,29.00
2016,03,13,07,37,22.50
2016,03,13,07,38,11.30
2016,03,13,07,39,19.30
2016,03,13,07,40,17.70
2016,03,13,07,41,22.50
2016,03,13,07,42,25.70
2016,03,13,07,43,29.00
2016,03,13,07,44,19.30
2016,03,13,07,45,25.70
2016,03,13,07,46,27.40
2016,03,13,07,47,24.20
2016,03,13,07,48,25.70
2016,03,13,07,49,20.90
2016,03,13,07,50,11.30
2016,03,13,07,51,19.30
2016,03,13,07,52,33.80
2016,03,13,07,53,27.40
2016,03,13,07,54,33.80
2016,03,13,07,55,30.60
2016,03,13,07,56,27.40
2016,03,13,07,57,20.90
2016,03,13,07,58,24.20
2016,03,13,07,59,30.60
2016,03,13,08,00,24.20
2016,03,13,08,01,32.20
2016,03,13,08,02,27.40
2016,03,13,08,03,29.00
2016,03,13,08,04,24.20
2016,03,13,08,05,25.70
2016,03,13,08,06,27.40
2016,03,13,08,07,25.70
2016,03,13,08,08,22.50
2016,03,13,08,09,22.50
2016,03,13,08,10,17.70
2016,03,13,08,11,29.00
2016,03,13,08,12,29.00
2016,03,13,08,13,20.90
2016,03,13,08,14,25.70
2016,03,13,08,15,27.40
2016,03,13,08,16,17.70
2016,03,13,08,17,17.70
2016,03,13,08,18,14.50
2016,03,13,08,19,24.20
2016,03,13,08,20,22.50
2016,03,13,08,21,22.50
2016,03,13,08,22,25.70
2016,03,13,08,23,24.20
2016,03,13,08,24,24.20
2016,03,13,08,25,24.20
2016,03,13,08,26,22.50
2016,03,13,08,27,24.20
2016,03,13,08,28,25.70
2016,03,13,08,29,24.20
2016,03,13,08,30,24.20
2016,03,13,08,31,17.70
2016,03,13,08,32,20.90
2016,03,13,08,33,14.50
2016,03,13,08,34,16.10
2016,03,13,08,35,24.20
2016,03,13,08,36,24.20
2016,03,13,08,37,24.20
2016,03,13,08,38,17.70
2016,03,13,08,39,16.10
2016,03,13,08,40,16.10
2016,03,13,08,41,20.90
2016,03,13,08,42,19.30
2016,03,13,08,43,14.50
2016,03,13,08,44,19.30
2016,03,13,08,45,20.90
2016,03,13,08,46,17.70
2016,03,13,08,47,14.50
2016,03,13,08,48,20.90
2016,03,13,08,49,27.40
2016,03,13,08,50,19.30
2016,03,13,08,51,14.50
2016,03,13,08,52,16.10
2016,03,13,08,53,20.90
2016,03,13,08,54,25.70
2016,03,13,08,55,29.00
2016,03,13,08,56,17.70
2016,03,13,08,57,11.30
2016,03,13,08,58,22.50
2016,03,13,08,59,19.30
2016,03,13,09,00,25.70
2016,03,13,09,01,12.90
2016,03,13,09,02,14.50
2016,03,13,09,03,16.10
2016,03,13,09,04,19.30
2016,03,13,09,05,8.10
2016,03,13,09,06,20.90
2016,03,13,09,07,19.30
2016,03,13,09,08,24.20
2016,03,13,09,09,24.20
2016,03,13,09,10,9.60
2016,03,13,09,11,22.50
2016,03,13,09,12,32.20
2016,03,13,09,13,22.50
2016,03,13,09,14,22.50
2016,03,13,09,15,20.90
2016,03,13,09,16,20.90
2016,03,13,09,17,20.90
2016,03,13,09,18,24.20
2016,03,13,09,19,20.90
2016,03,13,09,20,27.40
2016,03,13,09,21,20.90
2016,03,13,09,22,20.90
2016,03,13,09,23,30.60
2016,03,13,09,24,24.20
2016,03,13,09,25,22.50
2016,03,13,09,26,20.90
2016,03,13,09,27,19.30
2016,03,13,09,28,16.10
2016,03,13,09,29,19.30
2016,03,13,09,30,20.90
2016,03,13,09,31,16.10
2016,03,13,09,32,17.70
2016,03,13,09,33,20.90
2016,03,13,09,34,19.30
2016,03,13,09,35,25.70
2016,03,13,09,36,30.60
2016,03,13,09,37,20.90
2016,03,13,09,38,30.60
2016,03,13,09,39,33.80
2016,03,13,09,40,27.40
2016,03,13,09,41,17.70
2016,03,13,09,42,27.40
2016,03,13,09,43,22.50
2016,03,13,09,44,24.20
2016,03,13,09,45,16.10
2016,03,13,09,46,19.30
2016,03,13,09,47,33.80
2016,03,13,09,48,24.20
2016,03,13,09,49,22.50
2016,03,13,09,50,30.60
2016,03,13,09,51,30.60
2016,03,13,09,52,29.00
2016,03,13,09,53,22.50
2016,03,13,09,54,22.50
2016,03,13,09,55,37.00
2016,03,13,09,56,25.70
2016,03,13,09,57,17.70
2016,03,13,09,58,27.40
2016,03,13,09,59,20.90
2016,03,13,10,00,27.40
2016,03,13,10,01,24.20
2016,03,13,10,02,22.50
2016,03,13,10,03,19.30
2016,03,13,10,04,19.30
2016,03,13,10,05,19.30
2016,03,13,10,06,30.60
2016,03,13,10,07,29.00
2016,03,13,10,08,27.40
2016,03,13,10,09,29.00
2016,03,13,10,10,20.90
2016,03,13,10,11,25.70
2016,03,13,10,12,22.50
2016,03,13,10,13,17.70
2016,03,13,10,14,17.70
2016,03,13,10,15,29.00
2016,03,13,10,16,35.40
2016,03,13,10,17,22.50
2016,03,13,10,18,25.70
2016,03,13,10,19,27.40
2016,03,13,10,20,19.30
2016,03,13,10,21,32.20
2016,03,13,10,22,25.70
2016,03,13,10,23,20.90
2016,03,13,10,24,19.30
2016,03,13,10,25,16.10
2016,03,13,10,26,20.90
2016,03,13,10,27,29.00
2016,03,13,10,28,19.30
2016,03,13,10,29,20.90
2016,03,13,10,30,22.50
2016,03,13,10,31,27.40
2016,03,13,10,32,19.30
2016,03,13,10,33,20.90
2016,03,13,10,34,25.70
2016,03,13,10,35,16.10
2016,03,13,10,36,24.20
2016,03,13,10,37,25.70
2016,03,13,10,38,25.70
2016,03,13,10,39,20.90
2016,03,13,10,40,17.70
2016,03,13,10,41,24.20
2016,03,13,10,42,27.40
2016,03,13,10,43,20.90
2016,03,13,10,44,16.10
2016,03,13,10,45,14.50
2016,03,13,10,46,12.90
2016,03,13,10,47,11.30
2016,03,13,10,48,17.70
2016,03,13,10,49,24.20
2016,03,13,10,50,17.70
2016,03,13,10,51,16.10
2016,03,13,10,52,17.70
2016,03,13,10,53,27.40
2016,03,13,10,54,20.90
2016,03,13,10,55,12.90
2016,03,13,10,56,20.90
2016,03,13,10,57,22.50
2016,03,13,10,58,27.40
2016,03,13,10,59,25.70
2016,03,13,11,00,22.50
2016,03,13,11,01,22.50
2016,03,13,11,02,24.20
2016,03,13,11,03,16.10
2016,03,13,11,04,25.70
2016,03,13,11,05,17.70
2016,03,13,11,06,22.50
2016,03,13,11,07,22.50
2016,03,13,11,08,17.70
2016,03,13,11,09,32.20
2016,03,13,11,10,29.00
2016,03,13,11,11,35.40
2016,03,13,11,12,20.90
2016,03,13,11,13,22.50
2016,03,13,11,14,17.70
2016,03,13,11,15,20.90
2016,03,13,11,16,20.90
2016,03,13,11,17,20.90
2016,03,13,11,18,16.10
2016,03,13,11,19,19.30
2016,03,13,11,20,25.70
2016,03,13,11,21,22.50
2016,03,13,11,22,29.00
2016,03,13,11,23,27.40
2016,03,13,11,24,22.50
2016,03,13,11,25,16.10
2016,03,13,11,26,24.20
2016,03,13,11,27,17.70
2016,03,13,11,28,20.90
2016,03,13,11,29,27.40
2016,03,13,11,30,24.20
2016,03,13,11,31,24.20
2016,03,13,11,32,24.20
2016,03,13,11,33,40.20
2016,03,13,11,34,24.20
2016,03,13,11,35,19.30
2016,03,13,11,36,22.50
2016,03,13,11,37,30.60
2016,03,13,11,38,25.70
2016,03,13,11,39,24.20
2016,03,13,11,40,29.00
2016,03,13,11,41,27.40
2016,03,13,11,42,22.50
2016,03,13,11,43,19.30
2016,03,13,11,44,30.60
2016,03,13,11,45,16.10
2016,03,13,11,46,17.70
2016,03,13,11,47,25.70
2016,03,13,11,48,19.30
2016,03,13,11,49,24.20
2016,03,13,11,50,30.60
2016,03,13,11,51,35.40
2016,03,13,11,52,35.40
2016,03,13,11,53,20.90
2016,03,13,11,54,17.70
2016,03,13,11,55,25.70
2016,03,13,11,56,27.40
2016,03,13,11,57,20.90
2016,03,13,11,58,16.10
2016,03,13,11,59,30.60
2016,03,13,12,00,33.80
2016,03,13,12,01,30.60
2016,03,13,12,02,24.20
2016,03,13,12,03,22.50
2016,03,13,12,04,20.90
2016,03,13,12,05,35.40
2016,03,13,12,06,35.40
2016,03,13,12,07,29.00
2016,03,13,12,08,27.40
2016,03,13,12,09,33.80
2016,03,13,12,10,25.70
2016,03,13,12,11,24.20
2016,03,13,12,12,22.50
2016,03,13,12,13,24.20
2016,03,13,12,14,35.40
2016,03,13,12,15,22.50
2016,03,13,12,16,29.00
2016,03,13,12,17,25.70
2016,03,13,12,18,17.70
2016,03,13,12,19,19.30
2016,03,13,12,20,29.00
2016,03,13,12,21,27.40
2016,03,13,12,22,37.00
2016,03,13,12,23,27.40
2016,03,13,12,24,24.20
2016,03,13,12,25,24.20
2016,03,13,12,26,33.80
2016,03,13,12,27,32.20
2016,03,13,12,28,24.20
2016,03,13,12,29,29.00
2016,03,13,12,30,25.70
2016,03,13,12,31,24.20
2016,03,13,12,32,19.30
2016,03,13,12,33,19.30
2016,03,13,12,34,27.40
2016,03,13,12,35,27.40
2016,03,13,12,36,25.70
2016,03,13,12,37,32.20
2016,03,13,12,38,33.80
2016,03,13,12,39,32.20
2016,03,13,12,40,16.10
2016,03,13,12,41,33.80
2016,03,13,12,42,24.20
2016,03,13,12,43,29.00
2016,03,13,12,44,25.70
2016,03,13,12,45,25.70
2016,03,13,12,46,30.60
2016,03,13,12,47,29.00
2016,03,13,12,48,29.00
2016,03,13,12,49,29.00
2016,03,13,12,50,22.50
2016,03,13,12,51,25.70
2016,03,13,12,52,27.40
2016,03,13,12,53,24.20
2016,03,13,12,54,24.20
2016,03,13,12,55,29.00
2016,03,13,12,56,22.50
2016,03,13,12,57,40.20
2016,03,13,12,58,33.80
2016,03,13,12,59,30.60
2016,03,13,13,00,37.00
2016,03,13,13,01,33.80
2016,03,13,13,02,17.70
2016,03,13,13,03,37.00
2016,03,13,13,04,24.20
2016,03,13,13,05,24.20
2016,03,13,13,06,17.70
2016,03,13,13,07,22.50
2016,03,13,13,08,24.20
2016,03,13,13,09,27.40
2016,03,13,13,10,24.20
2016,03,13,13,11,29.00
2016,03,13,13,12,27.40
2016,03,13,13,13,29.00
2016,03,13,13,14,22.50
2016,03,13,13,15,16.10
2016,03,13,13,16,20.90
2016,03,13,13,17,27.40
2016,03,13,13,18,22.50
2016,03,13,13,19,25.70
2016,03,13,13,20,24.20
2016,03,13,13,21,16.10
2016,03,13,13,22,17.70
2016,03,13,13,23,32.20
2016,03,13,13,24,24.20
2016,03,13,13,25,37.00
2016,03,13,13,26,33.80
2016,03,13,13,27,29.00
2016,03,13,13,28,30.60
2016,03,13,13,29,29.00
2016,03,13,13,30,33.80
2016,03,13,13,31,30.60
2016,03,13,13,32,29.00
2016,03,13,13,33,25.70
2016,03,13,13,34,24.20
2016,03,13,13,35,25.70
2016,03,13,13,36,22.50
2016,03,13,13,37,24.20
2016,03,13,13,38,29.00
2016,03,13,13,39,22.50
2016,03,13,13,40,20.90
2016,03,13,13,41,24.20
2016,03,13,13,42,29.00
2016,03,13,13,43,24.20
2016,03,13,13,44,16.10
2016,03,13,13,45,24.20
2016,03,13,13,46,33.80
2016,03,13,13,47,27.40
2016,03,13,13,48,27.40
2016,03,13,13,49,17.70
2016,03,13,13,50,29.00
2016,03,13,13,51,20.90
2016,03,13,13,52,22.50
2016,03,13,13,53,17.70
2016,03,13,13,54,22.50
2016,03,13,13,55,24.20
2016,03,13,13,56,22.50
2016,03,13,13,57,24.20
2016,03,13,13,58,22.50
2016,03,13,13,59,41.80
2016,03,13,14,00,24.20
2016,03,13,14,01,25.70
2016,03,13,14,02,27.40
2016,03,13,14,03,20.90
2016,03,13,14,04,35.40
2016,03,13,14,05,25.70
2016,03,13,14,06,35.40
2016,03,13,14,07,14.50
2016,03,13,14,08,25.70
2016,03,13,14,09,20.90
2016,03,13,14,10,32.20
2016,03,13,14,11,40.20
2016,03,13,14,12,35.40
2016,03,13,14,13,30.60
2016,03,13,14,14,38.60
2016,03,13,14,15,20.90
2016,03,13,14,16,32.20
2016,03,13,14,17,20.90
2016,03,13,14,18,37.00
2016,03,13,14,19,35.40
2016,03,13,14,20,37.00
2016,03,13,14,21,29.00
2016,03,13,14,22,22.50
2016,03,13,14,23,32.20
2016,03,13,14,24,33.80
2016,03,13,14,25,35.40
2016,03,13,14,26,25.70
2016,03,13,14,27,19.30
2016,03,13,14,28,35.40
2016,03,13,14,29,30.60
2016,03,13,14,30,24.20
2016,03,13,14,31,27.40
2016,03,13,14,32,29.00
2016,03,13,14,33,27.40
2016,03,13,14,34,25.70
2016,03,13,14,35,22.50
2016,03,13,14,36,30.60
2016,03,13,14,37,19.30
2016,03,13,14,38,33.80
2016,03,13,14,39,33.80
2016,03,13,14,40,32.20
2016,03,13,14,41,38.60
2016,03,13,14,42,49.90
2016,03,13,14,43,32.20
2016,03,13,14,44,24.20
2016,03,13,14,45,37.00
2016,03,13,14,46,32.20
2016,03,13,14,47,32.20
2016,03,13,14,48,48.30
2016,03,13,14,49,38.60
2016,03,13,14,50,27.40
2016,03,13,14,51,40.20
2016,03,13,14,52,32.20
2016,03,13,14,53,38.60
2016,03,13,14,54,45.10
2016,03,13,14,55,43.50
2016,03,13,14,56,51.50
2016,03,13,14,57,48.30
2016,03,13,14,58,41.80
2016,03,13,14,59,30.60
2016,03,13,15,00,43.50
2016,03,13,15,01,35.40
2016,03,13,15,02,53.10
2016,03,13,15,03,45.10
2016,03,13,15,04,54.70
2016,03,13,15,05,30.60
2016,03,13,15,06,43.50
2016,03,13,15,07,27.40
2016,03,13,15,08,29.00
2016,03,13,15,09,41.80
2016,03,13,15,10,37.00
2016,03,13,15,11,35.40
2016,03,13,15,12,32.20
2016,03,13,15,13,38.60
2016,03,13,15,14,40.20
2016,03,13,15,15,40.20
2016,03,13,15,16,37.00
2016,03,13,15,17,41.80
2016,03,13,15,18,45.10
2016,03,13,15,19,37.00
2016,03,13,15,20,41.80
2016,03,13,15,21,37.00
2016,03,13,15,22,33.80
2016,03,13,15,23,35.40
2016,03,13,15,24,37.00
2016,03,13,15,25,33.80
2016,03,13,15,26,35.40
2016,03,13,15,27,38.60
2016,03,13,15,28,30.60
2016,03,13,15,29,33.80
2016,03,13,15,30,29.00
2016,03,13,15,31,27.40
2016,03,13,15,32,32.20
2016,03,13,15,33,41.80
2016,03,13,15,34,29.00
2016,03,13,15,35,25.70
2016,03,13,15,36,30.60
2016,03,13,15,37,25.70
2016,03,13,15,38,33.80
2016,03,13,15,39,22.50
2016,03,13,15,40,32.20
2016,03,13,15,41,32.20
2016,03,13,15,42,33.80
2016,03,13,15,43,30.60
2016,03,13,15,44,24.20
2016,03,13,15,45,25.70
2016,03,13,15,46,25.70
2016,03,13,15,47,27.40
2016,03,13,15,48,29.00
2016,03,13,15,49,30.60
2016,03,13,15,50,24.20
2016,03,13,15,51,32.20
2016,03,13,15,52,24.20
2016,03,13,15,53,30.60
2016,03,13,15,54,27.40
2016,03,13,15,55,25.70
2016,03,13,15,56,29.00
2016,03,13,15,57,19.30
2016,03,13,15,58,27.40
2016,03,13,15,59,22.50
2016,03,13,16,00,25.70
2016,03,13,16,01,27.40
2016,03,13,16,02,27.40
2016,03,13,16,03,22.50
2016,03,13,16,04,29.00
2016,03,13,16,05,25.70
2016,03,13,16,06,20.90
2016,03,13,16,07,20.90
2016,03,13,16,08,24.20
2016,03,13,16,09,24.20
2016,03,13,16,10,22.50
2016,03,13,16,11,32.20
2016,03,13,16,12,27.40
2016,03,13,16,13,22.50
2016,03,13,16,14,32.20
2016,03,13,16,15,22.50
2016,03,13,16,16,19.30
2016,03,13,16,17,27.40
2016,03,13,16,18,30.60
2016,03,13,16,19,27.40
2016,03,13,16,20,35.40
2016,03,13,16,21,30.60
2016,03,13,16,22,29.00
2016,03,13,16,23,25.70
2016,03,13,16,24,25.70
2016,03,13,16,25,29.00
2016,03,13,16,26,30.60
2016,03,13,16,27,43.50
2016,03,13,16,28,40.20
2016,03,13,16,29,35.40
2016,03,13,16,30,29.00
2016,03,13,16,31,30.60
2016,03,13,16,32,38.60
2016,03,13,16,33,25.70
2016,03,13,16,34,30.60
2016,03,13,16,35,30.60
2016,03,13,16,36,30.60
2016,03,13,16,37,46.70
2016,03,13,16,38,38.60
2016,03,13,16,39,40.20
2016,03,13,16,40,40.20
2016,03,13,16,41,43.50
2016,03,13,16,42,49.90
2016,03,13,16,43,41.80
2016,03,13,16,44,51.50
2016,03,13,16,45,46.70
2016,03,13,16,46,45.10
2016,03,13,16,47,43.50
2016,03,13,16,48,48.30
2016,03,13,16,49,54.70
2016,03,13,16,50,53.10
2016,03,13,16,51,43.50
2016,03,13,16,52,51.50
2016,03,13,16,53,53.10
2016,03,13,16,54,56.30
2016,03,13,16,55,62.70
2016,03,13,16,56,46.70
2016,03,13,16,57,64.40
2016,03,13,16,58,75.60
2016,03,13,16,59,69.20
2016,03,13,17,00,66.00
2016,03,13,17,01,64.40
2016,03,13,17,02,69.20
2016,03,13,17,03,66.00
2016,03,13,17,04,54.70
2016,03,13,17,05,56.30
2016,03,13,17,06,64.40
2016,03,13,17,07,59.50
2016,03,13,17,08,61.20
2016,03,13,17,09,57.90
2016,03,13,17,10,57.90
2016,03,13,17,11,53.10
2016,03,13,17,12,61.20
2016,03,13,17,13,64.40
2016,03,13,17,14,59.50
2016,03,13,17,15,53.10
2016,03,13,17,16,78.80
2016,03,13,17,17,69.20
2016,03,13,17,18,62.70
2016,03,13,17,19,66.00
2016,03,13,17,20,53.10
2016,03,13,17,21,49.90
2016,03,13,17,22,69.20
2016,03,13,17,23,56.30
2016,03,13,17,24,67.60
2016,03,13,17,25,77.30
2016,03,13,17,26,54.70
2016,03,13,17,27,57.90
2016,03,13,17,28,64.40
2016,03,13,17,29,56.30
2016,03,13,17,30,64.40
2016,03,13,17,31,75.60
2016,03,13,17,32,82.10
2016,03,13,17,33,90.10
2016,03,13,17,34,61.20
2016,03,13,17,35,59.50
2016,03,13,17,36,75.60
2016,03,13,17,37,80.50
2016,03,13,17,38,64.40
2016,03,13,17,39,59.50
2016,03,13,17,40,69.20
2016,03,13,17,41,64.40
2016,03,13,17,42,53.10
2016,03,13,17,43,69.20
2016,03,13,17,44,62.70
2016,03,13,17,45,51.50
2016,03,13,17,46,67.60
2016,03,13,17,47,66.00
2016,03,13,17,48,51.50
2016,03,13,17,49,57.90
2016,03,13,17,50,45.10
2016,03,13,17,51,49.90
2016,03,13,17,52,53.10
2016,03,13,17,53,66.00
2016,03,13,17,54,46.70
2016,03,13,17,55,57.90
2016,03,13,17,56,66.00
2016,03,13,17,57,53.10
2016,03,13,17,58,46.70
2016,03,13,17,59,64.40
2016,03,13,18,00,43.50
2016,03,13,18,01,56.30
2016,03,13,18,02,66.00
2016,03,13,18,03,45.10
2016,03,13,18,04,46.70
2016,03,13,18,05,56.30
2016,03,13,18,06,46.70
2016,03,13,18,07,48.30
2016,03,13,18,08,46.70
2016,03,13,18,09,61.20
2016,03,13,18,10,48.30
2016,03,13,18,11,46.70
2016,03,13,18,12,40.20
2016,03,13,18,13,45.10
2016,03,13,18,14,59.50
2016,03,13,18,15,64.40
2016,03,13,18,16,62.70
2016,03,13,18,17,53.10
2016,03,13,18,18,53.10
2016,03,13,18,19,56.30
2016,03,13,18,20,54.70
2016,03,13,18,21,49.90
2016,03,13,18,22,46.70
2016,03,13,18,23,70.80
2016,03,13,18,24,57.90
2016,03,13,18,25,53.10
2016,03,13,18,26,61.20
2016,03,13,18,27,64.40
2016,03,13,18,28,56.30
2016,03,13,18,29,66.00
2016,03,13,18,30,61.20
2016,03,13,18,31,48.30
2016,03,13,18,32,40.20
2016,03,13,18,33,51.50
2016,03,13,18,34,49.90
2016,03,13,18,35,45.10
2016,03,13,18,36,48.30
2016,03,13,18,37,53.10
2016,03,13,18,38,38.60
2016,03,13,18,39,48.30
2016,03,13,18,40,40.20
2016,03,13,18,41,45.10
2016,03,13,18,42,43.50
2016,03,13,18,43,45.10
2016,03,13,18,44,38.60
2016,03,13,18,45,43.50
2016,03,13,18,46,56.30
2016,03,13,18,47,46.70
2016,03,13,18,48,48.30
2016,03,13,18,49,30.60
2016,03,13,18,50,37.00
2016,03,13,18,51,41.80
2016,03,13,18,52,29.00
2016,03,13,18,53,38.60
2016,03,13,18,54,32.20
2016,03,13,18,55,41.80
2016,03,13,18,56,40.20
2016,03,13,18,57,57.90
2016,03,13,18,58,53.10
2016,03,13,18,59,33.80
2016,03,13,19,00,40.20
2016,03,13,19,01,48.30
2016,03,13,19,02,29.00
2016,03,13,19,03,24.20
2016,03,13,19,04,46.70
2016,03,13,19,05,43.50